Theta_e
329 330 332 333 334 334 335 336 339 343 347 347 347 346 344 344 342 341 339 338 337 335 334 333 333 332 331 330 330 327 327 327 322 328 328 328 330 329 330 329 326 327 327
328 329 331 332 335 336 338 338 342 346 347 347 346 344 344 343 341 340 339 337 335 334 333 333 332 332 331 330 327 326 326 327 326 325 327 329 329 329 329 328 327 325 326
326 329 331 335 337 339 341 342 346 347 346 346 344 344 343 342 340 339 337 334 333 332 332 332 332 331 330 329 327 327 325 327 326 327 325 328 327 329 328 328 327 327 327
337 337 338 339 340 342 344 345 346 346 346 344 344 343 343 341 339 338 335 333 332 331 332 332 332 331 331 329 329 328 324 326 327 326 325 326 326 327 328 327 326 327 326
343 343 343 344 345 346 346 346 345 344 344 343 343 343 341 338 337 336 333 333 332 332 333 333 332 332 331 330 329 328 326 326 327 326 325 326 325 326 326 325 324 325 326
344 343 344 344 344 345 345 345 344 343 343 343 343 341 338 336 334 334 331 332 332 333 332 332 332 332 331 330 329 328 327 327 326 325 324 326 325 325 325 324 323 324 322
343 342 342 342 342 342 341 342 341 341 342 342 339 338 337 335 333 332 332 333 331 332 332 331 329 328 329 330 330 329 327 328 327 327 326 326 326 326 325 324 324 323 321
339 340 339 339 338 337 338 337 340 340 339 338 337 336 334 333 332 331 330 330 331 331 331 329 327 327 328 329 328 328 329 328 328 327 327 326 326 325 326 325 324 322 322
333 339 338 337 336 335 333 334 334 335 335 334 334 333 332 331 331 331 331 331 331 331 329 326 329 329 327 327 327 328 328 327 327 327 326 326 326 326 326 325 323 322 320
333 338 337 336 335 333 333 333 333 333 333 332 330 331 331 330 329 330 330 331 331 330 327 327 329 329 328 327 327 327 326 326 327 327 325 325 326 326 326 326 324 322 321
326 331 335 334 334 334 333 333 332 332 331 331 330 328 328 328 330 331 331 331 331 330 329 329 329 328 329 327 326 326 325 325 325 325 324 324 325 325 325 324 323 324 322
324 335 334 334 333 332 332 331 331 331 330 328 326 325 325 327 330 331 331 331 331 330 329 328 328 327 328 327 326 325 326 326 325 324 323 323 323 323 323 323 323 322 322
329 334 333 333 332 332 332 331 330 330 328 326 325 323 323 325 328 330 331 330 330 330 328 328 328 326 326 327 326 326 326 326 324 322 322 322 323 323 323 322 322 321 321
334 334 334 333 332 332 332 331 330 329 329 328 325 322 322 323 326 328 330 330 330 328 326 325 325 325 325 326 326 325 325 323 322 322 321 321 321 322 322 322 321 321 321
334 334 332 331 331 331 330 330 330 330 330 328 326 325 323 322 325 327 329 328 329 327 325 322 322 323 324 323 322 322 322 321 321 320 319 319 320 321 321 321 321 320 320
332 332 330 328 326 327 327 326 330 331 331 331 331 330 325 326 325 325 327 328 328 326 323 321 320 321 322 321 320 321 321 320 320 320 320 320 320 320 321 320 320 321 321
330 328 328 328 327 325 325 325 321 327 330 330 330 330 328 326 324 323 323 323 323 323 320 320 320 320 320 321 321 322 321 320 320 319 319 320 320 321 321 321 321 321 321
330 329 329 329 328 328 327 327 325 325 325 326 329 329 327 325 323 323 323 323 320 321 321 320 320 320 320 320 321 322 322 321 320 319 319 319 320 320 321 320 321 321 322
328 329 328 328 327 327 326 326 325 325 323 322 323 326 326 325 325 325 324 323 321 322 321 320 320 320 320 321 321 322 322 321 320 319 319 319 319 319 319 320 321 321 321
329 329 329 327 325 325 325 324 322 321 319 319 319 320 322 324 321 320 322 322 321 322 322 320 320 320 321 321 322 322 322 322 321 320 320 320 320 319 320 320 320 321 321
328 329 329 326 326 325 324 323 321 320 320 320 318 318 320 319 317 319 321 322 322 323 323 322 321 321 321 321 322 323 323 322 321 321 320 320 321 321 320 321 321 321 321
329 329 329 328 327 325 324 324 322 321 319 318 316 315 317 320 321 321 321 323 323 324 323 324 322 321 321 321 321 322 322 322 322 322 321 321 321 321 322 322 323 323 323
330 330 331 330 328 328 325 324 322 322 321 319 316 316 318 320 321 321 321 322 323 324 324 324 322 322 322 322 323 322 322 322 322 322 322 323 323 322 322 322 323 324 324
329 331 331 331 329 327 327 324 323 322 321 319 318 318 318 317 315 315 315 315 317 317 318 318 318 318 318 320 321 323 323 323 324 323 322 322 323 324 323 322 322 322 324
323 324 322 325 327 327 327 324 322 321 319 317 314 312 309 309 308 305 305 305 306 309 309 309 309 309 311 313 316 317 320 323 323 323 322 323 323 325 325 326 325 325 325
309 310 310 313 319 322 321 319 315 311 308 307 306 304 302 300 299 300 301 303 302 301 301 302 302 304 305 305 305 310 316 318 320 322 320 320 320 320 320 318 318 316 315
Wind_Speed
34 39 38 35 32 30 30 28 32 30 31 31 30 28 25 25 23 22 19 17 15 14 12 13 12 11 11 10 9 9 7 7 3 2 2 3 10 9 12 12 10 9 8
38 37 37 33 30 27 26 30 33 31 31 33 32 28 28 26 25 22 19 17 16 15 14 13 12 11 11 11 10 10 8 6 5 3 3 4 7 9 13 12 10 8 7
30 30 29 28 26 27 30 33 31 31 31 33 31 30 30 28 25 20 18 17 16 15 14 14 12 13 12 10 10 10 11 9 5 4 4 5 9 12 13 13 9 8 7
20 23 24 27 30 31 33 32 32 30 34 33 33 32 29 27 23 21 18 16 17 15 13 12 11 14 14 12 12 11 12 10 7 8 6 6 10 14 16 17 12 10 9
19 22 24 27 31 32 31 30 30 33 35 34 33 30 28 25 23 21 18 17 16 16 14 13 13 12 12 12 13 14 14 12 10 12 9 7 11 15 15 14 18 16 14
19 20 25 27 28 27 29 30 32 32 34 34 33 30 26 24 22 19 18 17 13 15 15 13 12 10 11 11 11 13 16 15 14 12 8 12 12 14 16 23 21 15 4
17 20 24 25 25 28 29 31 31 33 35 32 30 27 26 23 19 17 16 15 15 16 15 13 10 8 8 12 12 11 14 12 13 18 18 17 18 23 24 24 19 18 10
2 17 22 25 25 27 31 30 35 34 34 31 27 26 25 20 18 17 17 17 17 16 14 11 8 7 8 11 11 10 11 13 12 15 19 21 23 25 25 25 25 18 17
11 13 21 26 27 27 28 32 33 32 29 27 28 27 22 20 18 18 18 17 17 16 13 10 8 8 8 10 13 12 11 9 11 12 11 14 18 25 25 24 24 20 8
15 15 20 25 29 28 32 32 31 31 30 29 25 22 21 20 19 17 17 18 19 17 13 10 7 5 7 10 13 14 12 11 12 12 10 11 15 17 21 24 30 19 14
10 16 23 27 31 34 34 33 32 31 27 24 23 19 19 18 18 16 16 19 20 19 15 12 9 5 6 10 11 11 12 14 12 15 15 16 16 20 22 22 25 29 25
14 24 25 34 29 33 33 30 28 27 25 24 23 17 15 16 15 15 15 16 18 18 16 12 11 9 5 12 11 10 10 14 16 16 16 17 18 21 20 17 19 22 22
31 26 28 30 30 32 30 27 25 27 24 19 21 20 17 15 15 13 15 14 14 15 13 10 11 10 6 8 11 11 14 16 16 16 15 15 17 17 16 14 14 15 17
21 26 27 27 27 29 28 28 26 22 19 18 16 18 19 16 15 13 15 15 16 14 12 10 10 10 8 9 15 15 16 14 13 13 14 13 15 15 17 16 15 16 16
23 24 22 26 25 23 21 17 22 25 27 21 19 25 23 18 17 14 14 16 19 17 16 13 12 10 9 13 19 18 15 14 14 13 14 14 14 16 17 19 17 18 12
22 22 22 24 22 25 24 16 18 20 22 23 23 25 20 14 16 15 14 13 15 16 14 14 12 13 14 17 17 16 16 15 15 15 15 15 16 17 17 17 18 20 17
25 22 24 27 25 23 19 19 14 13 17 17 17 18 15 16 18 18 15 14 12 12 10 14 14 13 14 16 17 18 19 16 14 15 16 16 16 17 15 15 16 16 14
28 31 27 24 26 24 22 22 21 18 15 15 17 17 15 17 20 18 16 15 16 8 8 12 11 11 12 15 16 17 17 16 15 15 15 16 15 15 15 14 16 16 13
26 24 24 23 23 24 23 22 20 20 16 18 16 16 18 18 17 16 17 16 14 9 8 8 8 9 10 12 16 17 18 18 15 14 14 14 15 13 14 14 16 14 12
14 30 28 24 24 22 22 22 20 18 16 15 13 20 20 21 17 18 13 9 8 6 4 6 8 7 9 10 15 16 15 14 14 12 13 13 13 15 15 15 14 16 17
17 28 26 23 23 22 21 20 21 18 14 12 13 18 17 14 10 11 9 8 8 7 5 6 8 6 7 9 11 12 14 13 12 11 11 13 12 13 15 13 15 16 16
20 25 23 22 21 20 21 22 22 19 15 14 14 16 10 12 12 12 10 6 4 3 3 5 8 7 6 6 8 11 11 11 10 10 10 12 14 13 12 14 12 13 14
19 21 21 20 22 22 21 21 21 21 20 18 18 19 12 12 12 11 8 7 8 10 11 9 9 8 8 7 7 7 7 9 10 11 12 11 12 13 15 16 16 15 17
16 23 22 23 24 23 22 21 21 19 22 21 18 13 15 17 17 15 14 14 14 15 14 12 10 8 9 7 5 5 7 9 9 9 11 13 14 13 16 19 21 22 20
19 22 19 19 24 24 24 22 25 23 21 19 21 21 19 19 19 20 20 21 21 21 19 18 18 16 14 12 9 4 2 6 5 7 8 12 16 16 16 16 11 8 6
23 26 24 23 26 23 23 23 25 25 25 26 25 24 24 23 23 23 24 24 25 26 26 26 24 22 21 21 18 13 9 7 6 6 5 6 8 8 6 5 4 4 5
Wind_Direction
226 222 218 215 218 218 218 215 214 208 204 194 190 189 183 181 183 182 184 190 199 201 204 206 208 216 218 216 215 209 213 213 171 219 206 184 173 172 161 157 164 173 169
225 219 218 217 214 211 212 213 209 201 200 191 188 185 179 181 180 181 186 195 194 197 198 203 209 213 216 215 216 211 206 198 204 157 135 130 167 176 154 146 143 147 168
224 212 208 208 204 206 205 204 199 196 191 187 185 180 179 180 180 186 195 192 195 196 198 205 216 217 213 215 217 216 209 196 201 161 128 129 131 166 152 139 135 135 147
214 193 187 192 197 195 196 194 193 190 185 184 182 179 179 179 182 190 191 192 195 197 204 216 229 225 224 219 215 212 199 195 192 157 119 132 143 148 155 137 119 124 128
189 174 177 178 181 184 182 184 183 183 179 178 176 177 177 179 187 189 187 189 196 208 213 222 230 228 237 229 222 208 200 193 176 162 143 146 152 147 149 153 133 138 127
162 156 163 169 172 175 176 175 172 173 175 175 172 174 178 186 190 187 185 186 194 195 200 211 218 220 226 221 219 219 209 199 189 168 163 171 170 151 149 150 145 138 111
150 152 158 161 158 164 161 159 161 164 164 165 171 176 182 183 178 176 182 190 187 192 194 198 202 215 213 206 205 210 204 214 225 203 177 179 171 177 169 156 158 151 148
58 153 152 150 149 145 138 146 151 159 162 169 173 177 174 170 176 182 184 186 188 189 190 191 196 194 193 191 194 190 195 207 214 214 216 199 195 187 182 174 166 151 142
0 181 158 151 140 140 140 145 155 159 164 170 167 169 167 163 168 174 176 181 182 179 180 176 178 190 185 186 186 173 166 174 188 192 210 214 206 189 182 173 162 147 141
13 180 163 149 147 146 146 154 158 163 163 162 164 168 170 165 171 178 184 181 173 170 171 169 179 189 188 184 190 177 166 163 172 183 179 182 191 191 195 192 177 154 138
266 289 158 155 151 153 153 155 157 159 158 159 161 162 166 170 166 173 181 181 178 175 177 173 173 187 190 184 194 187 189 168 160 160 158 163 171 179 186 191 187 187 174
224 210 162 150 151 154 155 158 157 158 155 156 156 153 162 165 164 171 179 184 182 180 181 188 180 192 187 193 193 187 183 160 153 152 165 171 177 183 188 194 199 200 196
253 156 141 147 151 158 154 152 150 156 146 146 152 154 158 163 168 176 180 183 187 188 185 187 182 177 171 168 190 187 177 162 157 157 169 178 187 194 188 186 196 200 199
149 128 137 141 149 158 160 162 155 150 146 153 156 155 162 161 163 164 172 176 177 181 175 166 168 174 181 188 182 188 185 182 181 184 189 190 193 194 191 192 185 190 192
127 133 135 137 140 139 136 149 164 173 171 163 171 171 164 170 176 173 171 174 179 179 166 151 152 165 167 175 178 182 184 186 179 180 184 187 193 198 199 199 196 186 185
131 134 138 136 138 142 144 138 166 176 184 190 182 180 178 178 170 172 174 170 170 173 162 165 179 181 180 178 175 187 186 188 185 180 186 197 192 191 195 193 188 183 193
132 135 138 137 139 142 145 144 128 142 172 180 182 185 176 162 164 164 166 165 166 177 175 189 194 194 194 195 192 192 193 192 186 184 189 195 194 190 182 179 189 198 211
142 146 139 144 150 154 155 155 156 151 143 146 166 170 170 168 167 166 163 159 161 179 192 189 195 200 204 205 202 197 200 191 188 189 191 199 200 198 190 184 190 195 197
139 141 147 148 153 155 156 154 155 147 138 146 148 161 162 162 165 170 175 171 176 187 187 181 187 195 200 201 202 200 202 192 191 193 197 194 203 206 204 207 209 203 209
157 152 152 145 142 145 149 142 138 130 132 139 139 149 150 150 151 161 164 164 161 159 194 181 184 189 190 184 191 194 188 186 192 198 204 204 207 211 219 219 215 217 225
158 150 154 143 146 148 146 142 145 137 136 135 139 154 149 143 143 153 153 150 160 170 157 166 172 165 164 167 162 175 182 184 194 204 209 208 214 218 223 228 232 241 248
169 158 154 144 147 141 148 155 153 147 132 124 132 148 131 146 144 148 143 135 134 163 172 149 143 153 147 163 183 193 190 196 200 205 208 216 225 227 228 232 245 250 252
179 161 151 148 147 147 147 155 153 154 152 140 144 151 142 143 139 141 137 135 136 137 142 143 142 145 164 175 173 191 209 227 237 238 228 225 227 230 233 239 245 259 260
168 154 157 161 156 149 143 143 148 151 152 144 135 139 140 134 125 124 125 126 123 118 120 122 120 116 114 149 150 181 213 223 231 233 232 238 242 239 236 240 245 255 268
143 123 129 139 145 145 140 133 137 141 131 121 124 132 127 123 120 116 114 114 113 111 106 101 96 91 89 91 91 91 242 220 221 240 246 251 247 247 253 254 255 242 236
97 96 92 95 104 111 114 115 117 117 112 118 121 119 118 111 111 112 110 108 102 96 94 89 85 85 84 82 80 88 86 101 136 162 126 109 124 137 147 123 111 85 53